Location: Crescent
(42.8242°N, 73.7329°W)
Time: 18:26:24
(UTC+00:00)

Vanguard 1 Rocket - Pass Details

Date: 22 February 2026
Orbit: 653 x 4214 km, 34.3° (Epoch: 8 March)

Event Time Altitude Azimuth Distance (km) Brightness Sun altitude
Rises 23:39:41 0° 277° (W) 6,131 13.5 -12.4°
Reaches altitude 10° 23:43:52 10° 268° (W) 5,578 12.9 -13.2°
Maximum altitude 23:58:40 31° 215° (SW) 5,231 11.5 -15.9°
Drops below altitude 10° 00:18:37 10° 164° (SSE) 7,407 11.8 -19.6°
Sets 00:25:40 0° 155° (SSE) 8,350 12.0 -20.9°
